Location: Saint Peter Port
(49.4500°N, 2.5330°W)
Time: 20:15:07
(UTC+01:00)

Cosmos 2242 Rocket - Visible Passes

Search period start: 22 May 2017 00:00
Search period end: 01 June 2017 00:00
Orbit: 618 x 653 km, 82.5° (Epoch: 21 May)

Date Brightness Start Highest point End Pass type
(mag) Time Alt. Az. Time Alt. Az. Time Alt. Az.
22 May 6.7 03:12:15 10° NE 03:14:12 13° ENE 03:16:09 10° E visible
23 May 6.1 03:33:32 10° NNE 03:37:03 22° ENE 03:40:34 10° ESE visible
24 May 5.0 03:55:32 10° N 03:59:46 40° ENE 04:04:00 10° SE visible
25 May 6.7 02:42:12 10° NE 02:43:18 11° ENE 02:44:23 10° ENE visible
25 May 3.8 04:17:50 10° N 04:22:19 78° E 04:26:50 10° SSE visible
26 May 6.2 03:02:57 10° NNE 03:06:11 19° ENE 03:09:26 10° ESE visible
27 May 5.3 03:24:50 10° N 03:28:56 34° ENE 03:33:03 10° SE visible
28 May 4.0 03:47:04 10° N 03:51:32 65° ENE 03:56:02 10° SSE visible
29 May 6.3 02:32:25 10° NNE 02:35:20 17° ENE 02:38:14 10° ESE visible
29 May 3.7 04:09:32 10° NNW 04:14:00 65° W 04:18:29 10° S visible
30 May 5.5 02:54:10 10° N 02:58:07 29° ENE 03:02:04 10° SE visible
31 May 4.3 03:16:18 10° N 03:20:45 55° ENE 03:25:12 10° SSE visible
